[[{"header":{"parameterUnit":"m.s-1","parameterCategory":1,"la1":30.2991,"la2":30.254,"lo1":-89.0895,"lo2":-89.0444,"dy":0.0017,"dx":0.0017,"nx":28,"ny":28,"refTime":"2024-02-27T09:00:00:Z","depth":0,"parameterNumber":2,"parameterNumberName":"U-component_of_WINDS"},"data":[0,0,0,0,0,0,0,0,0,0,0,0,0,0,0,0,0,0,0,0,0,0,0,0,0,0,0,0,0,0,0,0,0,0,0,0,0,0,0,0,0,0,0,0,0,0,0,0,0,0,0,0,0,0,0,0,0,0,2.0633,2.0632,0,2.0508,2.0507,2.0505,2.047,2.0471,2.0472,2.0473,2.0346,2.0342,2.0338,0,0,0,0,0,0,0,0,0,0,0,0,0,2.0846,2.0843,2.0633,2.0631,2.063,2.0508,2.0507,2.0505,2.047,2.0471,2.0472,2.0473,2.0347,2.0343,2.0338,0,0,0,0,0,0,0,0,0,0,0,0,0,2.0741,2.0841,2.0633,2.0598,2.0594,2.0509,2.0506,2.0504,2.047,2.0471,2.0472,2.0473,2.0349,2.0343,2.0337,2.0279,0,0,2.0319,2.0316,0,0,0,0,0,0,0,0,2.0747,2.0733,2.0605,2.06,2.0595,2.0506,2.0535,2.0429,2.047,2.0517,2.0473,2.0474,2.0398,2.0388,2.0363,2.0273,2.0267,2.0318,2.0314,2.0312,2.031,0,0,0,0,0,0,0,2.0754,2.0738,2.0584,2.0603,2.0597,2.059,2.0576,2.0515,2.0453,2.0513,2.051,2.0496,2.0396,2.0369,2.0359,2.0265,2.0318,2.0313,2.0309,2.0307,2.0126,2.0125,0,0,0,0,0,0,2.0767,2.0745,2.0588,2.058,2.0675,2.0585,2.057,2.0533,2.0454,2.0443,2.0495,2.0495,2.0378,2.0367,2.0355,2.0284,2.0312,2.0306,2.0303,2.0128,2.0126,2.0125,0,0,0,0,0,0,2.0772,2.0753,2.0593,2.0661,2.064,2.058,2.054,2.053,2.0503,2.044,2.043,2.0478,2.0379,2.0363,2.0299,2.0279,2.0304,2.0298,2.0129,2.0127,2.0126,2.014,0,0,0,0,0,0,2.0778,2.0755,2.0731,2.0661,2.0637,2.0537,2.0539,2.0527,2.0492,2.0491,2.0421,2.0411,2.0378,2.0308,2.0293,2.0271,2.0293,2.013,2.0128,2.0126,2.0141,2.0139,2.0137,0,0,0,0,0,2.0786,2.0739,2.073,2.0711,2.0605,2.0536,2.0522,2.0485,2.0491,2.0467,2.0428,2.0413,2.0284,2.0302,2.0284,2.026,2.0132,2.0129,2.0126,2.0142,2.0139,2.0137,0,0,0,0,0,0,2.0807,2.0729,2.0718,2.0647,2.0599,2.053,2.0498,2.0483,2.0432,2.0432,2.0389,2.0374,2.0313,2.028,2.0302,2.0202,2.0208,2.0202,2.0226,2.0223,2.0221,2.023,2.0288,0,0,0,0,0,2.0804,2.0754,2.0688,2.0632,2.0609,2.0558,2.0527,2.0503,2.0451,2.043,2.0386,2.0337,2.0286,2.0252,2.0201,2.0137,2.0123,2.0112,2.011,2.0109,2.0104,2.0071,2.0067,2.0116,2.0116,2.0116,0,0,2.0796,2.0748,2.0718,2.0636,2.0595,2.0546,2.0541,2.0487,2.0451,2.0422,2.0359,2.0325,2.0268,2.0204,2.0174,2.0175,2.0088,2.0106,2.0105,2.0101,2.0068,2.0064,2.0059,2.0115,2.0115,2.0115,0,0,2.0757,2.0714,2.0664,2.0625,2.0564,2.0532,2.052,2.0455,2.0432,2.0368,2.0346,2.0303,2.0215,2.0176,2.0145,2.0097,2.0083,2.0082,2.0071,2.004,2.0036,2.0032,2.0017,2.0012,2.0077,2.0077,2.0077,0,2.0755,2.0678,2.0641,2.059,2.0556,2.0529,2.048,2.0443,2.0369,2.0347,2.035,2.0241,2.02,2.0129,2.0118,2.0093,2.008,2.0088,2.0039,2.0035,2.0031,2.0017,2.0011,2.0077,2.0077,2.0077,2.0077,0,2.068,2.0628,2.0595,2.0526,2.0488,2.0438,2.0395,2.0362,2.0343,2.0312,2.0249,2.02,2.0141,2.0122,2.0102,2.0049,2.0052,2.0048,2.0052,2.0028,2.0013,2.0007,2.0078,2.0078,2.0078,2.0078,0,0,2.0648,2.0561,2.055,2.052,2.0454,2.0413,2.0364,2.0306,2.028,2.0231,2.019,2.0119,2.0116,2.008,2.0056,2.0029,1.9998,2.0028,2.0026,2.0025,1.994,1.9944,1.9937,1.9989,1.9987,1.9986,1.9945,0,2.0601,2.0511,2.0478,2.0405,2.0358,2.0335,2.0292,2.0248,2.0219,2.0176,2.0143,2.0094,2.0092,2.0071,2.0043,2.0007,1.998,2.001,1.9952,1.995,1.9967,1.9929,1.9933,1.9896,1.9939,1.9938,1.9937,0,2.0533,2.0486,2.0408,2.0351,2.033,2.0293,2.0239,2.0198,2.015,2.013,2.0093,2.0072,2.0023,2.0032,1.9965,1.9986,1.9961,1.9941,1.9938,1.9931,1.9942,1.9923,1.9883,1.9878,1.9927,1.9928,1.9929,0,2.052,2.0436,2.038,2.0354,2.0286,2.0261,2.0232,2.0184,2.0153,2.0107,2.0087,2.0036,2.0008,1.997,1.9938,1.9947,1.9875,1.988,1.9859,1.986,1.9844,1.9845,1.98,1.9827,1.9827,1.9827,1.9827,0,2.0471,2.0425,2.0373,2.0338,2.0288,2.0252,2.0203,2.0173,2.0131,2.0092,2.0069,2.0033,1.9991,1.9951,1.9925,1.9875,1.9863,1.9847,1.9841,1.9849,1.9851,1.9832,1.9834,1.9826,1.9826,1.9826,1.9827,0,2.0447,2.041,2.0347,2.0289,2.0274,2.0239,2.019,2.0157,2.0128,2.0079,2.0066,2.002,1.9972,1.9936,1.9872,1.9856,1.9803,1.9796,1.9819,1.9816,1.9797,1.98,1.9738,1.973,1.9762,1.9762,1.9762,0,2.0418,2.0383,2.0322,2.0294,2.0265,2.022,2.0189,2.0155,2.0123,2.0068,2.0042,1.9993,1.995,1.9875,1.9837,1.979,1.9782,1.9764,1.9775,1.9786,1.9784,1.9787,1.9784,1.9763,1.9762,1.9762,1.9762,0,2.0372,2.0357,2.0312,2.0263,2.0227,2.0186,2.0145,2.0124,2.0083,2.0049,2.0,1.9968,1.9905,1.9857,1.9807,1.9778,1.9764,1.976,1.9752,1.976,1.9776,1.9769,1.9816,1.9761,1.9761,1.9761,1.9761,1.9761,2.0346,2.0314,2.0268,2.022,2.0186,2.015,2.0117,2.0085,2.0043,1.9989,1.9972,1.9921,1.9878,1.9809,1.9781,1.9743,1.9743,1.9732,1.9729,1.9727,1.9729,1.9783,1.9733,1.9733,1.9733,1.9733,1.9733,0,2.03,2.027,2.0227,2.0171,2.0135,2.0125,2.0081,2.0051,2.0007,1.9968,1.9928,1.9873,1.9828,1.9788,1.9741,1.9718,1.9711,1.9707,1.9709,1.9703,1.973,1.9742,1.9714,1.9714,1.9714,1.9714,1.9714,1.9714,2.0272,2.0219,2.0199,2.0131,2.0101,2.0052,2.0028,1.9995,1.9964,1.9904,1.9866,1.984,1.9802,1.9753,1.9712,1.9701,1.9686,1.9684,1.9672,1.9698,1.9701,1.9703,1.9714,1.9681,1.9681,1.9648,1.9648,1.9648]},{"header":{"parameterUnit":"m.s-1","parameterCategory":1,"la1":30.2991,"la2":30.254,"lo1":-89.0895,"lo2":-89.0444,"dy":0.0017,"dx":0.0017,"nx":28,"ny":28,"refTime":"2024-02-27T09:00:00:Z","depth":0,"parameterNumber":3,"parameterNumberName":"V-component_of_WINDS"},"data":[0,0,0,0,0,0,0,0,0,0,0,0,0,0,0,0,0,0,0,0,0,0,0,0,0,0,0,0,0,0,0,0,0,0,0,0,0,0,0,0,0,0,0,0,0,0,0,0,0,0,0,0,0,0,0,0,0,0,1.5648,1.565,0,1.583,1.5832,1.5834,1.5847,1.5845,1.5843,1.5841,1.6028,1.6035,1.6041,0,0,0,0,0,0,0,0,0,0,0,0,0,1.531,1.5317,1.5648,1.565,1.5652,1.583,1.5832,1.5835,1.5847,1.5845,1.5842,1.584,1.6026,1.6034,1.6042,0,0,0,0,0,0,0,0,0,0,0,0,0,1.5471,1.5319,1.5647,1.568,1.5685,1.5829,1.5832,1.5835,1.5848,1.5845,1.5842,1.5839,1.6023,1.6033,1.6043,1.6168,0,0,1.6075,1.6079,0,0,0,0,0,0,0,0,1.5462,1.5484,1.5673,1.5678,1.5684,1.5813,1.5782,1.5947,1.5849,1.5786,1.5841,1.5837,1.5959,1.5974,1.6015,1.6176,1.6184,1.6076,1.6082,1.6086,1.6089,0,0,0,0,0,0,0,1.5451,1.5476,1.572,1.5676,1.5682,1.5685,1.5705,1.5813,1.5887,1.5791,1.5793,1.5814,1.5961,1.6005,1.602,1.6187,1.6075,1.6084,1.6091,1.6095,1.6457,1.6461,0,0,0,0,0,0,1.5434,1.5466,1.5714,1.5725,1.5563,1.5694,1.5716,1.5774,1.5886,1.59,1.5816,1.5814,1.5989,1.6007,1.6026,1.6178,1.6086,1.6096,1.6102,1.6454,1.6458,1.6462,0,0,0,0,0,0,1.5426,1.5456,1.5707,1.5596,1.5629,1.5703,1.5769,1.578,1.5824,1.5905,1.5918,1.5848,1.5987,1.6012,1.6132,1.6185,1.61,1.611,1.645,1.6455,1.646,1.6484,0,0,0,0,0,0,1.5416,1.5453,1.5501,1.5597,1.5634,1.581,1.5772,1.5785,1.5841,1.584,1.5938,1.5951,1.5987,1.6116,1.6142,1.6198,1.6118,1.6446,1.6452,1.6458,1.6479,1.6489,1.6498,0,0,0,0,0,1.5404,1.5501,1.5504,1.5534,1.5697,1.5813,1.5834,1.5873,1.5845,1.5894,1.5946,1.5948,1.6175,1.6129,1.6158,1.6217,1.6442,1.645,1.6458,1.6474,1.6487,1.6498,0,0,0,0,0,0,1.541,1.5514,1.5518,1.5649,1.5722,1.5815,1.5878,1.5885,1.5968,1.5963,1.6008,1.603,1.6148,1.6195,1.6141,1.6342,1.6305,1.6319,1.6308,1.6321,1.633,1.6317,1.6126,0,0,0,0,0,1.5426,1.5513,1.5599,1.5706,1.5742,1.5804,1.5856,1.5879,1.5957,1.5988,1.6049,1.6123,1.6211,1.6269,1.6354,1.6485,1.6506,1.654,1.655,1.6557,1.6569,1.664,1.6656,1.6487,1.6487,1.6487,0,0,1.5462,1.5529,1.5581,1.5709,1.5768,1.5856,1.583,1.5924,1.5989,1.6002,1.6119,1.6166,1.6253,1.6378,1.6437,1.6421,1.662,1.6567,1.6573,1.6581,1.665,1.6666,1.668,1.6493,1.6492,1.6491,0,0,1.557,1.563,1.5725,1.5785,1.5874,1.5914,1.5937,1.6029,1.606,1.6178,1.6189,1.6267,1.6418,1.6478,1.6529,1.6658,1.6662,1.6684,1.6736,1.6805,1.6818,1.683,1.6876,1.6892,1.6696,1.6696,1.6696,0,1.5603,1.5736,1.5773,1.5867,1.5923,1.5937,1.6034,1.6089,1.6202,1.624,1.622,1.6408,1.6468,1.6607,1.6638,1.6679,1.6706,1.6674,1.6813,1.6826,1.6838,1.6882,1.6899,1.6698,1.6698,1.6697,1.6697,0,1.577,1.5862,1.5928,1.6036,1.6099,1.6194,1.6245,1.6304,1.6321,1.6363,1.6482,1.6553,1.6653,1.6687,1.6705,1.6829,1.6816,1.6804,1.6768,1.6855,1.6897,1.6914,1.6701,1.67,1.67,1.6699,0,0,1.589,1.6016,1.604,1.6089,1.6187,1.6259,1.6353,1.645,1.6499,1.6576,1.6656,1.6782,1.6771,1.6828,1.6853,1.6913,1.701,1.6894,1.6897,1.6913,1.715,1.7158,1.7177,1.7013,1.7016,1.7019,1.7142,0,1.601,1.6179,1.6215,1.636,1.6445,1.6458,1.6541,1.661,1.665,1.6728,1.6773,1.6861,1.684,1.6875,1.6935,1.6985,1.7058,1.6977,1.7087,1.7091,1.7066,1.72,1.721,1.7323,1.7159,1.7162,1.7164,0,1.6173,1.6253,1.6407,1.6493,1.6529,1.6603,1.6693,1.6767,1.6845,1.687,1.6933,1.6951,1.7048,1.7006,1.7141,1.7085,1.7132,1.7163,1.7169,1.7181,1.7133,1.7216,1.736,1.7378,1.719,1.7188,1.7186,0,1.6244,1.639,1.6501,1.6542,1.6645,1.6696,1.6742,1.6816,1.6872,1.6951,1.6987,1.7076,1.7125,1.7193,1.7234,1.72,1.7365,1.7327,1.7389,1.7388,1.7424,1.7422,1.7579,1.7453,1.7453,1.7453,1.7452,0,1.6375,1.6468,1.6534,1.6602,1.6707,1.6747,1.6849,1.6894,1.696,1.7037,1.7053,1.7125,1.7174,1.7252,1.7284,1.739,1.7412,1.7435,1.7443,1.7434,1.7431,1.7467,1.746,1.7457,1.7456,1.7455,1.7455,0,1.6473,1.6521,1.6643,1.673,1.6754,1.6827,1.6901,1.6968,1.7007,1.7104,1.7129,1.7192,1.7284,1.7331,1.7446,1.7468,1.7588,1.759,1.7562,1.7565,1.7624,1.7618,1.781,1.7837,1.7693,1.7694,1.7695,0,1.6554,1.6626,1.672,1.6773,1.6819,1.6903,1.6959,1.7,1.7058,1.7151,1.7206,1.7299,1.7376,1.7522,1.7578,1.7666,1.7671,1.7732,1.7684,1.7673,1.7672,1.7667,1.7674,1.7741,1.7742,1.7743,1.7744,0,1.6691,1.6711,1.6791,1.688,1.6946,1.7018,1.7089,1.713,1.7182,1.7246,1.7341,1.74,1.7517,1.7609,1.77,1.7746,1.7754,1.7758,1.7777,1.777,1.775,1.7762,1.7585,1.7754,1.7753,1.7752,1.7752,1.7751,1.6784,1.6848,1.6924,1.7013,1.707,1.7135,1.7201,1.7249,1.7328,1.7427,1.7446,1.7546,1.762,1.7743,1.7792,1.787,1.7857,1.7884,1.7891,1.7898,1.7901,1.7737,1.7886,1.7886,1.7886,1.7886,1.7886,0,1.6922,1.6971,1.7053,1.715,1.722,1.722,1.7297,1.7355,1.7443,1.7512,1.7586,1.7694,1.7783,1.7844,1.7934,1.7985,1.799,1.8007,1.8004,1.8014,1.7907,1.7882,1.8001,1.8001,1.8001,1.8001,1.8001,1.8001,1.7003,1.7112,1.714,1.7276,1.7325,1.7423,1.7467,1.7527,1.7581,1.7701,1.7775,1.7814,1.788,1.7974,1.8055,1.807,1.8103,1.8119,1.8135,1.8034,1.8022,1.8011,1.7987,1.8126,1.8126,1.8236,1.8237,1.8238]}]]